When you browse on this site, cookies collect data to enhance your experience and personalize the content and advertising you see.
Visit our Privacy Policy to learn more. By continuing to use the site, you agree to this use of cookies and data.
  • In Sweden
  • List of Countries
  • For 7 days
  • Water Temperature
  • Satellite Maps
  • Weather Map
  • Weather Widgets
  • user-avatar
    Login

    Hourly Weather Batman

    Today, 21 November, Wednesday

    Time Temperature Precipitation Wind Pressure Humidity
    00:00 +11°C° 0 mm 0 mps 714 mmHg 56%
    01:00 +11°C° 0 mm 0 mps 713 mmHg 57%
    02:00 +11°C° 0 mm 0 mps 713 mmHg 58%
    03:00 +12°C° 0 mm 1 mps 713 mmHg 58%
    04:00 +12°C° 0 mm 1 mps 713 mmHg 59%
    05:00 +10°C° 0 mm 0 mps 713 mmHg 60%
    06:00 +10°C° 0 mm 0 mps 713 mmHg 61%
    07:00 +11°C° 0 mm 0 mps 713 mmHg 58%
    08:00 +12°C° 0 mm 0 mps 713 mmHg 54%
    09:00 +13°C° 0 mm 0 mps 713 mmHg 50%
    10:00 +14°C° 0 mm 0 mps 713 mmHg 48%
    11:00 +15°C° 0 mm 0 mps 713 mmHg 46%
    12:00 +18°C° 0 mm 1 mps 713 mmHg 44%
    13:00 +18°C° 0 mm 1 mps 712 mmHg 43%
    14:00 +18°C° 0 mm 1 mps 712 mmHg 43%
    15:00 +19°C° 0 mm 1 mps 712 mmHg 43%
    16:00 +17°C° 0 mm 2 mps 712 mmHg 47%
    17:00 +16°C° 0 mm 2 mps 712 mmHg 51%
    18:00 +15°C° 0 mm 2 mps 712 mmHg 54%
    19:00 +15°C° 0 mm 2 mps 712 mmHg 56%
    20:00 +14°C° 0 mm 2 mps 712 mmHg 58%
    21:00 +14°C° 0 mm 2 mps 712 mmHg 60%
    22:00 +14°C° 0.1 mm 2 mps 712 mmHg 62%
    23:00 +14°C° 0.1 mm 2 mps 712 mmHg 64%

    Tomorrow, 22 November, Thursday

    Time Temperature Precipitation Wind Pressure Humidity
    00:00 +13°C° 0.1 mm 2 mps 712 mmHg 66%
    01:00 +13°C° 0.4 mm 2 mps 712 mmHg 69%
    02:00 +13°C° 0.4 mm 2 mps 711 mmHg 72%
    03:00 +13°C° 0.4 mm 2 mps 711 mmHg 74%
    04:00 +12°C° 0.8 mm 2 mps 711 mmHg 76%
    05:00 +12°C° 0.8 mm 2 mps 711 mmHg 78%
    06:00 +12°C° 0.8 mm 2 mps 711 mmHg 80%
    07:00 +12°C° 1.5 mm 2 mps 711 mmHg 82%
    08:00 +10°C° 1.5 mm 2 mps 711 mmHg 83%
    09:00 +10°C° 1.5 mm 2 mps 711 mmHg 85%
    10:00 +10°C° 1.6 mm 2 mps 711 mmHg 86%
    11:00 +10°C° 1.6 mm 2 mps 710 mmHg 86%
    12:00 +10°C° 1.6 mm 2 mps 710 mmHg 87%
    13:00 +10°C° 1.2 mm 2 mps 710 mmHg 87%
    14:00 +10°C° 1.2 mm 2 mps 710 mmHg 88%
    15:00 +10°C° 1.2 mm 2 mps 709 mmHg 88%
    16:00 +10°C° 1.1 mm 2 mps 710 mmHg 89%
    17:00 +10°C° 1.1 mm 2 mps 710 mmHg 90%
    18:00 +10°C° 1.1 mm 2 mps 710 mmHg 91%
    19:00 +10°C° 0.5 mm 2 mps 710 mmHg 91%
    20:00 +10°C° 0.5 mm 2 mps 710 mmHg 90%
    21:00 +10°C° 0.5 mm 2 mps 711 mmHg 90%
    22:00 +10°C° 0.4 mm 2 mps 711 mmHg 90%
    23:00 +10°C° 0.4 mm 2 mps 711 mmHg 90%

    Day after tomorrow, 23 November, Friday

    Time Temperature Precipitation Wind Pressure Humidity
    00:00 +11°C° 0.4 mm 1 mps 711 mmHg 90%
    01:00 +11°C° 0.2 mm 1 mps 711 mmHg 90%
    02:00 +11°C° 0.2 mm 1 mps 711 mmHg 90%
    03:00 +11°C° 0.2 mm 1 mps 711 mmHg 90%
    04:00 +11°C° 0.1 mm 1 mps 711 mmHg 90%
    05:00 +11°C° 0.1 mm 1 mps 711 mmHg 90%
    06:00 +11°C° 0.1 mm 1 mps 711 mmHg 90%
    07:00 +11°C° 0.1 mm 1 mps 711 mmHg 88%
    08:00 +12°C° 0.1 mm 1 mps 712 mmHg 86%
    09:00 +12°C° 0.1 mm 1 mps 712 mmHg 84%
    10:00 +13°C° 0.1 mm 2 mps 712 mmHg 80%
    11:00 +13°C° 0.1 mm 2 mps 712 mmHg 76%
    12:00 +14°C° 0.1 mm 2 mps 712 mmHg 73%
    13:00 +14°C° 0 mm 2 mps 711 mmHg 72%
    14:00 +15°C° 0 mm 2 mps 711 mmHg 70%
    15:00 +15°C° 0 mm 2 mps 711 mmHg 69%
    16:00 +14°C° 0 mm 1 mps 711 mmHg 72%
    17:00 +14°C° 0 mm 1 mps 711 mmHg 76%
    18:00 +13°C° 0 mm 1 mps 711 mmHg 79%
    19:00 +13°C° 0 mm 1 mps 711 mmHg 80%
    20:00 +13°C° 0 mm 1 mps 712 mmHg 81%
    21:00 +12°C° 0 mm 1 mps 712 mmHg 82%
    22:00 +12°C° 0 mm 1 mps 712 mmHg 82%
    23:00 +12°C° 0 mm 1 mps 712 mmHg 81%

    24 November, Saturday

    Time Temperature Precipitation Wind Pressure Humidity
    00:00 +12°C° 0 mm 1 mps 712 mmHg 81%
    01:00 +11°C° 0 mm 1 mps 712 mmHg 81%
    02:00 +11°C° 0 mm 1 mps 712 mmHg 80%
    03:00 +11°C° 0 mm 1 mps 713 mmHg 80%
    04:00 +11°C° 0 mm 1 mps 713 mmHg 80%
    05:00 +11°C° 0 mm 1 mps 713 mmHg 79%
    06:00 +11°C° 0 mm 1 mps 713 mmHg 79%
    07:00 +11°C° 0 mm 1 mps 713 mmHg 75%
    08:00 +12°C° 0 mm 1 mps 714 mmHg 72%
    09:00 +12°C° 0 mm 1 mps 714 mmHg 69%
    10:00 +13°C° 0 mm 1 mps 714 mmHg 64%
    11:00 +14°C° 0 mm 1 mps 714 mmHg 58%
    12:00 +16°C° 0 mm 1 mps 714 mmHg 53%
    13:00 +16°C° 0 mm 1 mps 714 mmHg 51%
    14:00 +16°C° 0 mm 1 mps 713 mmHg 49%
    15:00 +18°C° 0 mm 1 mps 713 mmHg 47%
    16:00 +16°C° 0 mm 1 mps 714 mmHg 52%
    17:00 +15°C° 0 mm 1 mps 714 mmHg 56%
    18:00 +14°C° 0 mm 1 mps 714 mmHg 61%
    19:00 +14°C° 0 mm 1 mps 714 mmHg 63%
    20:00 +13°C° 0 mm 1 mps 715 mmHg 65%
    21:00 +12°C° 0 mm 0 mps 715 mmHg 68%
    22:00 +12°C° 0 mm 0 mps 715 mmHg 69%
    23:00 +11°C° 0 mm 0 mps 715 mmHg 71%

    25 November, Sunday

    Time Temperature Precipitation Wind Pressure Humidity
    00:00 +11°C° 0 mm 0 mps 715 mmHg 73%
    01:00 +11°C° 0 mm 0 mps 715 mmHg 73%
    02:00 +12°C° 0 mm 1 mps 714 mmHg 73%
    03:00 +11°C° 0 mm 1 mps 714 mmHg 74%
    04:00 +11°C° 0 mm 1 mps 714 mmHg 73%
    05:00 +11°C° 0 mm 1 mps 714 mmHg 73%
    06:00 +11°C° 0 mm 1 mps 713 mmHg 73%
    07:00 +11°C° 0 mm 1 mps 713 mmHg 70%
    08:00 +12°C° 0 mm 1 mps 713 mmHg 67%
    09:00 +12°C° 0 mm 1 mps 713 mmHg 64%
    10:00 +13°C° 0 mm 1 mps 713 mmHg 60%
    11:00 +14°C° 0 mm 1 mps 712 mmHg 56%
    12:00 +16°C° 0 mm 1 mps 712 mmHg 52%
    13:00 +16°C° 0 mm 1 mps 711 mmHg 51%
    14:00 +16°C° 0 mm 1 mps 711 mmHg 50%
    15:00 +17°C° 0 mm 2 mps 711 mmHg 48%
    16:00 +16°C° 0 mm 1 mps 711 mmHg 52%
    17:00 +15°C° 0 mm 1 mps 711 mmHg 56%
    18:00 +14°C° 0 mm 1 mps 711 mmHg 60%
    19:00 +13°C° 0 mm 1 mps 711 mmHg 62%
    20:00 +13°C° 0 mm 1 mps 711 mmHg 63%
    21:00 +11°C° 0 mm 0 mps 711 mmHg 65%
    22:00 +11°C° 0 mm 0 mps 711 mmHg 66%
    23:00 +11°C° 0 mm 0 mps 711 mmHg 67%

    26 November, Monday

    Time Temperature Precipitation Wind Pressure Humidity
    00:00 +11°C° 0 mm 0 mps 711 mmHg 68%
    01:00 +10°C° 0 mm 0 mps 711 mmHg 69%
    02:00 +10°C° 0 mm 0 mps 711 mmHg 71%
    03:00 +10°C° 0 mm 0 mps 711 mmHg 72%
    04:00 +10°C° 0 mm 0 mps 711 mmHg 73%
    05:00 +9°C° 0 mm 0 mps 711 mmHg 74%
    06:00 +9°C° 0 mm 0 mps 711 mmHg 75%
    07:00 +10°C° 0 mm 0 mps 712 mmHg 72%
    08:00 +12°C° 0 mm 1 mps 712 mmHg 68%
    09:00 +12°C° 0 mm 1 mps 712 mmHg 65%
    10:00 +13°C° 0 mm 1 mps 712 mmHg 63%
    11:00 +14°C° 0 mm 1 mps 712 mmHg 60%
    12:00 +15°C° 0 mm 1 mps 712 mmHg 57%
    13:00 +15°C° 0 mm 1 mps 712 mmHg 57%
    14:00 +15°C° 0 mm 1 mps 712 mmHg 56%
    15:00 +16°C° 0 mm 1 mps 712 mmHg 56%
    16:00 +15°C° 0 mm 1 mps 712 mmHg 60%
    17:00 +14°C° 0 mm 1 mps 712 mmHg 64%
    18:00 +13°C° 0 mm 1 mps 713 mmHg 68%
    19:00 +13°C° 0 mm 1 mps 713 mmHg 69%
    20:00 +13°C° 0 mm 1 mps 713 mmHg 71%
    21:00 +13°C° 0 mm 1 mps 714 mmHg 72%
    22:00 +13°C° 0 mm 1 mps 714 mmHg 74%
    23:00 +12°C° 0 mm 1 mps 714 mmHg 75%
    Show more